Weather History for KPTT - January, 2014

Change the Weather History Date:

Tuesday, January 21, 2014

  Actual Average (KP28) Record (KP28)
Temperature  
Mean Temperature 22 °F 34 °F  
Max Temperature 33 °F 46 °F 72 °F (1943)
Min Temperature 10 °F 22 °F -3 °F (1935)
Degree Days  
Heating Degree Days 44 31  
Month to date heating degree days 670  
Since 1 July heating degree days 2469  
Cooling Degree Days 0 0  
Month to date cooling degree days 0  
Year to date cooling degree days 0  
Moisture  
Dew Point 6 °F    
Average Humidity 50    
Maximum Humidity 73    
Minimum Humidity 30    
Precipitation  
Precipitation 0.00 in 0.02 in 0.55 in (1945)
Month to date precipitation 0.41  
Year to date precipitation 0.41  
Snow  
Snow 0.00 in 0.10 in - ()
Month to date snowfall 1.7  
Since 1 July snowfall 4.6  
Snow Depth -    
Sea Level Pressure  
Sea Level Pressure 30.28 in    
Wind  
Wind Speed 14 mph (SW)    
Max Wind Speed 26 mph    
Max Gust Speed 34 mph    
Visibility 10 miles    
Events      
T = Trace of Precipitation, MM = Missing Value Source: NWS Daily Summary

Daily Weather History Graph

Daily Weather History Graph

Search for Another Location

Airport or City:

Trip Planner

Search our weather history database for the weather conditions in past years. The results will help you decide how hot, cold, wet, or windy it might be!

Date:

Astronomy

Jan. 21, 2014 Rise Set
Actual Time 7:46 AM CST 5:46 PM CST
Civil Twilight 7:18 AM CST 6:14 PM CST
Nautical Twilight 6:46 AM CST 6:46 PM CST
Astronomical Twilight 6:14 AM CST 7:18 PM CST
Moon 11:13 PM CST (1/21) 10:23 AM CST (1/21)
Length of Visible Light 10h 56m
Length of Day
10h 00m
Waning Gibbous, 74% of the Moon is Illuminated
Jan 21
Waning Gibbous
Jan 23
Last Quarter
Jan 30
New
Feb 6
First Quarter
Feb 14
Full

Hourly Weather History & Observations

Time (CST) Temp. Windchill Dew Point Humidity Pressure Visibility Wind Dir Wind Speed Gust Speed Precip Events Conditions
12:15 AM 28.4 °F 14.4 °F 12.2 °F 51% 30.41 in 10.0 mi North 23.0 mph 27.6 mph N/A   Clear
12:35 AM 26.6 °F 11.7 °F 10.4 °F 51% 30.41 in 10.0 mi North 24.2 mph 29.9 mph N/A   Clear
12:55 AM 26.6 °F 11.1 °F 8.6 °F 47% 30.41 in 10.0 mi North 26.5 mph 34.5 mph N/A   Clear
1:15 AM 23.0 °F 8.0 °F 8.6 °F 54% 30.41 in 10.0 mi North 20.7 mph 28.8 mph N/A   Clear
1:35 AM 23.0 °F 10.6 °F 8.6 °F 54% 30.42 in 10.0 mi North 13.8 mph 26.5 mph N/A   Clear
1:55 AM 21.2 °F 8.3 °F 8.6 °F 58% 30.42 in 10.0 mi North 13.8 mph - N/A   Clear
2:15 AM 21.2 °F 8.3 °F 8.6 °F 58% 30.43 in 10.0 mi NNW 13.8 mph - N/A   Clear
2:35 AM 21.2 °F 7.3 °F 8.6 °F 58% 30.43 in 10.0 mi North 16.1 mph 21.9 mph N/A   Clear
2:55 AM 19.4 °F 4.5 °F 6.8 °F 58% 30.45 in 10.0 mi North 17.3 mph - N/A   Clear
3:15 AM 19.4 °F 3.6 °F 5.0 °F 54% 30.45 in 10.0 mi North 19.6 mph - N/A   Clear
3:35 AM 19.4 °F 3.6 °F 5.0 °F 54% 30.45 in 10.0 mi North 19.6 mph 24.2 mph N/A   Clear
3:55 AM 17.6 °F 4.3 °F 5.0 °F 58% 30.45 in 10.0 mi North 12.7 mph - N/A   Clear
4:15 AM 17.6 °F 2.7 °F 5.0 °F 58% 30.44 in 10.0 mi North 16.1 mph - N/A   Clear
4:35 AM 15.8 °F 3.4 °F 5.0 °F 62% 30.45 in 10.0 mi North 10.4 mph - N/A   Clear
4:55 AM 15.8 °F 1.4 °F 3.2 °F 58% 30.45 in 10.0 mi North 13.8 mph - N/A   Clear
5:15 AM 14.0 °F -0.8 °F 5.0 °F 67% 30.46 in 10.0 mi North 13.8 mph - N/A   Clear
5:35 AM 14.0 °F -0.2 °F 3.2 °F 62% 30.47 in 10.0 mi North 12.7 mph 16.1 mph N/A   Clear
5:55 AM 14.0 °F -0.8 °F 3.2 °F 62% 30.46 in 10.0 mi North 13.8 mph - N/A   Clear
6:15 AM 12.2 °F -1.0 °F 3.2 °F 67% 30.46 in 10.0 mi North 10.4 mph - N/A   Clear
6:35 AM 12.2 °F 2.9 °F 3.2 °F 67% 30.45 in 10.0 mi North 5.8 mph - N/A   Clear
6:55 AM 12.2 °F 2.9 °F 3.2 °F 67% 30.45 in 10.0 mi NNE 5.8 mph - N/A   Clear
7:15 AM 10.4 °F 2.2 °F 3.2 °F 73% 30.46 in 10.0 mi North 4.6 mph - N/A   Clear
7:35 AM 10.4 °F -0.4 °F 3.2 °F 73% 30.47 in 10.0 mi NNE 6.9 mph - N/A   Clear
7:55 AM 12.2 °F 4.3 °F 3.2 °F 67% 30.45 in 10.0 mi NNE 4.6 mph - N/A   Clear
8:15 AM 12.2 °F 1.7 °F 3.2 °F 67% 30.44 in 10.0 mi NNE 6.9 mph - N/A   Clear
8:35 AM 12.2 °F 1.7 °F 1.4 °F 62% 30.43 in 10.0 mi NNE 6.9 mph - N/A   Clear
8:55 AM 12.2 °F 4.3 °F 1.4 °F 62% 30.42 in 10.0 mi NNE 4.6 mph - N/A   Clear
9:15 AM 14.0 °F 5.1 °F 1.4 °F 57% 30.42 in 10.0 mi NE 5.8 mph - N/A   Clear
9:35 AM 14.0 °F 6.5 °F 1.4 °F 57% 30.41 in 10.0 mi NE 4.6 mph - N/A   Clear
9:55 AM 15.8 °F 7.2 °F 1.4 °F 53% 30.41 in 10.0 mi East 5.8 mph - N/A   Clear
10:15 AM 17.6 °F 10.7 °F 1.4 °F 49% 30.41 in 10.0 mi SE 4.6 mph - N/A   Clear
10:35 AM 17.6 °F 12.3 °F 1.4 °F 49% 30.40 in 10.0 mi South 3.5 mph - N/A   Clear
10:55 AM 19.4 °F 12.8 °F 1.4 °F 46% 30.39 in 10.0 mi SSE 4.6 mph - N/A   Clear
11:15 AM 21.2 °F 14.9 °F 1.4 °F 42% 30.38 in 10.0 mi SSE 4.6 mph - N/A   Clear
11:35 AM 23.0 °F 15.8 °F 1.4 °F 39% 30.37 in 10.0 mi South 5.8 mph - N/A   Clear
11:55 AM 23.0 °F 14.7 °F 1.4 °F 39% 30.35 in 10.0 mi South 6.9 mph - N/A   Clear
12:15 PM 24.8 °F 15.3 °F 1.4 °F 36% 30.32 in 10.0 mi South 9.2 mph - N/A   Clear
12:35 PM 26.6 °F 19.1 °F 1.4 °F 34% 30.30 in 10.0 mi SSE 6.9 mph - N/A   Clear
12:55 PM 28.4 °F 18.5 °F 1.4 °F 31% 30.27 in 10.0 mi South 11.5 mph - N/A   Clear
1:15 PM 30.2 °F 20.2 °F 3.2 °F 32% 30.23 in 10.0 mi South 12.7 mph 17.3 mph N/A   Clear
1:35 PM 30.2 °F 19.8 °F 3.2 °F 32% 30.22 in 10.0 mi SSW 13.8 mph - N/A   Clear
1:55 PM 30.2 °F 20.8 °F 3.2 °F 32% 30.20 in 10.0 mi South 11.5 mph - N/A   Clear
2:15 PM 32.0 °F 24.8 °F 3.2 °F 30% 30.19 in 10.0 mi South 8.1 mph - N/A   Clear
2:35 PM 32.0 °F 22.5 °F 5.0 °F 32% 30.18 in 10.0 mi SSW 12.7 mph - N/A   Clear
2:55 PM 32.0 °F 22.1 °F 5.0 °F 32% 30.16 in 10.0 mi SSW 13.8 mph - N/A   Clear
3:15 PM 33.8 °F 23.9 °F 6.8 °F 32% 30.16 in 10.0 mi SSW 15.0 mph - N/A   Clear
3:35 PM 33.8 °F 23.9 °F 6.8 °F 32% 30.14 in 10.0 mi SW 15.0 mph - N/A   Clear
3:55 PM 33.8 °F 24.3 °F 6.8 °F 32% 30.14 in 10.0 mi SSW 13.8 mph - N/A   Clear
4:15 PM 33.8 °F 24.8 °F 8.6 °F 35% 30.13 in 10.0 mi SSW 12.7 mph - N/A   Clear
4:35 PM 33.8 °F 24.3 °F 8.6 °F 35% 30.12 in 10.0 mi SSW 13.8 mph - N/A   Clear
4:55 PM 33.8 °F 24.3 °F 8.6 °F 35% 30.12 in 10.0 mi SSW 13.8 mph - N/A   Clear
5:15 PM 33.8 °F 25.8 °F 8.6 °F 35% 30.12 in 10.0 mi SSW 10.4 mph - N/A   Clear
5:35 PM 32.0 °F 24.8 °F 8.6 °F 38% 30.12 in 10.0 mi South 8.1 mph - N/A   Clear
5:55 PM 30.2 °F 21.9 °F 8.6 °F 40% 30.11 in 10.0 mi South 9.2 mph - N/A   Clear
6:15 PM 28.4 °F 21.2 °F 8.6 °F 43% 30.12 in 10.0 mi South 6.9 mph - N/A   Clear
6:35 PM 28.4 °F 19.1 °F 8.6 °F 43% 30.11 in 10.0 mi South 10.4 mph - N/A   Clear
6:55 PM 26.6 °F 16.8 °F 8.6 °F 47% 30.11 in 10.0 mi South 10.4 mph - N/A   Clear
7:15 PM 26.6 °F 16.8 °F 8.6 °F 47% 30.11 in 10.0 mi SSW 10.4 mph - N/A   Clear
7:35 PM 26.6 °F 16.8 °F 8.6 °F 47% 30.10 in 10.0 mi South 10.4 mph - N/A   Clear
7:55 PM 26.6 °F 16.8 °F 8.6 °F 47% 30.10 in 10.0 mi SSW 10.4 mph - N/A   Clear
8:15 PM 26.6 °F 16.2 °F 10.4 °F 51% 30.09 in 10.0 mi SSW 11.5 mph - N/A   Clear
8:35 PM 26.6 °F 15.2 °F 10.4 °F 51% 30.09 in 10.0 mi SSW 13.8 mph - N/A   Clear
8:55 PM 26.6 °F 15.7 °F 10.4 °F 51% 30.08 in 10.0 mi SSW 12.7 mph - N/A   Clear
9:15 PM 26.6 °F 16.2 °F 10.4 °F 51% 30.08 in 10.0 mi SSW 11.5 mph - N/A   Clear
9:35 PM 26.6 °F 16.2 °F 10.4 °F 51% 30.07 in 10.0 mi SSW 11.5 mph - N/A   Clear
9:55 PM 26.6 °F 17.5 °F 10.4 °F 51% 30.07 in 10.0 mi SW 9.2 mph - N/A   Clear
10:15 PM 26.6 °F 16.8 °F 10.4 °F 51% 30.07 in 10.0 mi SW 10.4 mph - N/A   Clear
10:35 PM 24.8 °F 16.1 °F 10.4 °F 54% 30.07 in 10.0 mi SW 8.1 mph - N/A   Clear
10:55 PM 24.8 °F 16.9 °F 10.4 °F 54% 30.07 in 10.0 mi SW 6.9 mph - N/A   Clear
11:15 PM 23.0 °F 13.9 °F 10.4 °F 59% 30.08 in 10.0 mi WSW 8.1 mph - N/A   Clear
11:35 PM 23.0 °F 14.7 °F 12.2 °F 63% 30.09 in 10.0 mi WNW 6.9 mph - N/A   Clear
11:55 PM 23.0 °F 14.7 °F 12.2 °F 63% 30.09 in 10.0 mi WNW 6.9 mph - N/A   Clear